Theta_e
313 313 313 314 313 315 319 322 321 320 320 317 317 318 318 319 319 319 319 319 319 318 317 317 316 316 317 318 318 318 318 318 318 317 317 319 319 318 319 318 319 317 320 327 329 331 333 334 334 335 336 338 339 339 339 340 339 340 340 341 340 339 337 336 336 335 334 335 334 333 330 328 327 323 321 321 321 321 321 321 321 324 328 327 330 332 332 333 332 331 331 330 327 325 324 324 325
313 313 313 313 313 319 323 322 320 318 317 315 316 319 317 318 318 319 319 319 319 317 317 316 316 316 317 318 318 318 318 318 319 318 318 319 318 318 319 318 318 318 320 325 328 330 332 333 333 335 336 336 338 339 340 340 340 340 340 340 339 338 337 334 333 334 334 335 336 332 329 327 325 323 321 321 322 321 321 322 321 323 327 326 328 331 331 331 331 331 330 330 328 325 323 322 322
312 313 312 315 318 321 323 321 319 315 315 314 316 318 317 318 318 319 319 318 317 316 317 317 317 317 318 319 318 318 319 318 318 318 318 318 319 318 318 318 318 318 319 323 327 329 331 332 333 334 335 335 336 338 339 339 340 340 340 339 339 337 335 333 333 334 334 335 337 332 328 327 326 323 322 322 322 322 321 321 321 322 324 325 328 330 330 330 329 329 328 328 328 324 321 320 319
314 314 314 318 322 322 322 321 319 316 314 314 315 317 318 319 319 318 318 317 317 317 317 317 318 318 318 319 318 318 318 318 317 318 319 317 317 316 317 318 318 318 318 322 325 328 330 331 333 333 333 333 334 336 337 338 339 339 339 338 337 337 334 332 333 334 334 335 336 332 327 327 328 325 323 323 322 322 321 321 321 321 323 327 329 329 328 327 325 325 326 328 327 323 321 320 318
317 317 317 321 324 321 321 320 319 316 314 315 315 317 318 317 318 318 318 317 317 317 317 318 319 317 317 318 318 319 318 318 318 318 319 316 315 315 316 316 318 319 318 320 324 327 329 329 331 332 332 332 333 334 335 336 337 338 338 337 336 335 334 332 333 334 334 335 334 331 326 325 327 325 323 322 322 322 321 321 321 322 325 328 328 327 326 325 321 320 324 327 325 323 321 320 318
318 319 319 320 321 320 320 318 317 316 316 317 317 317 317 317 317 317 318 317 317 317 317 317 318 318 318 317 317 318 318 318 318 318 318 315 315 315 315 316 317 318 318 319 322 325 327 329 330 331 331 331 332 333 333 335 336 337 337 335 335 334 334 332 333 334 333 332 331 329 325 323 323 323 323 322 323 323 321 321 322 322 324 327 326 325 325 320 316 316 320 322 322 321 320 318 315
319 320 320 320 320 320 321 317 317 317 316 316 317 317 317 317 315 315 318 318 318 317 317 317 317 317 317 316 317 317 317 317 318 318 317 315 315 315 315 315 316 318 319 319 320 323 325 328 329 330 331 331 331 331 332 333 334 336 336 335 334 334 334 332 332 334 333 331 329 326 324 323 323 324 324 324 325 325 323 321 320 322 325 326 325 324 321 316 312 312 314 315 315 315 315 313 312
319 320 320 322 322 321 321 318 318 318 316 315 316 317 316 317 314 316 319 318 317 316 316 317 316 317 316 316 317 317 317 317 317 318 317 315 315 315 315 315 315 317 318 319 319 321 323 326 328 329 330 330 331 331 332 333 333 334 335 335 334 334 333 332 332 333 334 332 328 326 327 326 327 328 326 326 328 328 325 322 319 322 324 322 321 320 317 314 312 311 310 311 312 311 311 311 310
319 319 321 322 321 321 319 318 318 318 317 316 316 316 315 315 315 316 318 317 316 315 316 316 316 316 316 317 317 316 316 317 317 317 317 315 315 315 315 315 315 315 317 319 319 320 321 323 326 327 328 329 329 331 332 331 333 334 334 335 334 334 332 332 332 332 334 333 329 328 330 329 329 329 328 328 330 329 328 324 320 320 321 318 317 317 316 315 313 311 310 311 311 310 310 309 307
319 319 321 322 320 319 317 318 318 317 318 317 316 316 315 314 315 316 317 317 316 315 316 316 317 316 316 317 317 316 316 315 316 317 316 315 315 316 315 315 315 315 315 317 319 319 320 321 323 325 326 328 328 330 332 332 332 333 334 335 334 332 332 333 333 332 332 331 329 329 331 329 329 329 329 330 330 330 330 328 325 323 321 319 319 320 318 315 312 311 311 311 311 311 309 307 305
320 319 320 321 318 316 316 317 318 318 317 316 316 315 315 314 314 316 316 316 315 315 316 316 317 316 316 316 317 316 315 315 315 316 315 315 315 315 316 316 316 315 315 316 317 318 319 320 321 322 323 326 327 328 331 333 333 332 333 335 334 333 333 333 333 333 332 329 328 329 329 329 329 329 330 330 331 331 331 330 329 326 325 324 324 324 321 317 313 310 310 310 311 310 307 304 304
319 320 319 320 318 317 317 318 318 318 317 317 316 315 314 313 315 316 316 316 315 316 316 316 317 316 316 317 316 315 314 315 315 315 315 315 315 315 315 315 316 316 316 315 315 317 318 319 320 322 322 324 326 326 327 330 333 332 332 334 334 335 334 333 332 330 331 329 327 328 329 328 328 329 330 330 332 332 331 331 331 329 327 327 326 325 323 320 315 310 309 309 310 309 305 303 303
319 320 319 318 318 319 318 318 318 318 318 317 316 314 313 313 315 316 317 316 316 317 316 316 316 315 316 316 315 314 314 315 314 315 315 315 316 315 315 315 316 316 316 316 315 316 316 317 318 320 321 322 324 325 325 327 330 331 331 333 334 335 335 334 331 329 329 328 326 326 328 328 327 328 329 329 330 331 332 331 331 330 329 329 328 326 324 324 319 311 308 307 308 307 304 303 303
318 318 318 318 316 318 318 318 318 318 317 316 315 314 313 314 315 315 316 317 316 316 316 315 315 315 316 316 315 314 315 315 314 315 314 315 316 316 316 315 315 316 316 316 316 316 315 316 316 317 319 321 323 324 325 325 327 328 329 331 333 334 333 332 331 328 328 328 326 325 326 328 327 326 327 329 329 330 332 332 331 331 330 330 329 327 326 326 320 312 308 306 307 307 304 303 303
316 316 319 319 317 317 317 318 318 318 317 316 315 313 314 314 315 315 316 317 316 315 315 315 315 315 315 315 316 315 315 315 314 315 314 315 315 316 316 316 315 315 316 316 316 316 316 315 315 316 316 318 320 323 326 326 325 326 329 330 330 332 331 330 329 328 327 327 326 325 326 327 327 325 325 327 328 329 330 330 330 330 330 330 329 328 327 326 320 313 309 305 306 307 305 303 302
314 315 319 318 317 317 317 318 318 318 317 316 315 313 315 315 314 315 315 316 316 315 315 315 314 315 314 315 315 314 314 314 314 314 314 315 315 316 316 316 316 315 315 316 316 316 316 316 316 316 316 316 318 320 324 328 327 326 329 329 329 331 330 329 329 328 328 328 327 326 325 326 326 324 324 326 328 328 329 329 330 329 329 329 329 328 326 325 321 315 312 306 304 306 304 303 302
314 315 317 315 316 317 317 318 317 317 316 316 315 314 316 316 315 315 315 315 315 315 315 315 314 314 314 314 314 313 313 314 314 314 314 314 315 315 316 316 316 316 315 315 316 316 316 316 316 316 316 316 317 318 320 325 328 327 329 330 328 329 329 329 329 328 328 328 327 326 325 326 326 325 324 326 327 327 328 328 328 328 328 328 328 326 324 324 322 318 316 310 305 305 304 303 302
315 317 315 313 315 316 317 319 317 317 317 316 315 314 316 317 316 315 315 315 315 316 315 314 314 314 314 313 313 313 314 314 314 314 314 314 315 315 315 316 316 316 315 315 315 316 316 316 316 316 317 317 317 318 317 321 326 326 328 330 329 329 329 329 328 327 328 328 328 327 326 327 326 325 325 325 326 326 326 326 325 325 325 326 326 325 323 322 321 319 319 317 310 306 304 303 302
316 317 316 314 316 316 316 318 317 316 317 316 315 314 315 316 316 315 316 316 315 316 316 314 313 313 313 313 313 313 313 313 314 314 314 314 314 315 315 315 316 316 316 316 316 316 316 316 316 316 316 317 317 318 318 319 322 325 328 330 331 330 330 329 329 328 327 328 329 328 327 327 327 327 327 325 325 326 326 326 324 323 324 325 325 324 324 323 321 320 321 321 317 310 306 304 303
317 317 317 316 315 315 314 316 316 315 315 316 315 314 315 316 315 315 316 317 316 316 316 315 314 314 313 312 313 313 313 313 313 313 314 314 314 314 314 314 314 315 315 315 316 315 316 316 316 316 316 317 317 318 319 320 323 326 328 329 329 331 331 330 330 329 327 328 329 329 328 328 328 330 329 325 323 325 327 327 325 327 329 328 328 327 326 324 323 323 323 322 321 316 310 306 304
317 317 317 316 314 315 315 315 315 314 314 315 315 314 316 316 315 315 315 316 317 316 315 315 314 314 313 313 313 313 314 313 314 314 313 313 314 314 313 314 314 314 314 314 315 314 315 315 315 316 316 316 317 317 318 322 326 328 329 329 328 329 331 331 328 327 326 327 328 328 327 327 327 328 329 326 322 321 324 327 326 330 333 332 332 331 327 324 324 327 327 324 323 320 315 309 306
317 316 316 316 314 316 316 314 315 315 314 314 314 315 315 315 314 315 315 316 317 314 313 314 313 313 313 313 313 314 313 314 314 313 313 313 313 313 313 313 313 313 314 313 314 314 314 314 314 315 316 317 316 317 317 319 324 327 328 330 328 326 330 335 333 332 330 326 326 327 327 327 326 326 328 327 325 321 321 323 323 325 328 329 330 331 328 325 325 328 328 327 325 322 319 314 310
317 316 314 315 315 316 316 314 315 314 314 314 314 315 314 313 314 314 314 315 314 312 312 312 312 313 313 313 313 313 314 314 314 313 313 313 313 313 313 313 313 313 313 313 313 314 314 313 314 314 314 316 316 317 317 317 323 326 327 328 327 326 330 336 335 335 335 331 330 331 331 332 330 327 326 327 326 326 325 323 322 323 322 322 324 325 325 324 327 329 328 327 325 323 320 316 313
316 316 315 315 314 315 315 314 314 313 313 314 313 313 313 313 314 313 313 313 312 312 311 312 312 312 312 312 313 313 314 314 314 313 313 312 312 312 312 312 312 313 313 313 313 313 314 314 314 313 313 315 316 317 317 317 321 326 326 325 327 327 327 331 332 331 333 333 333 333 333 335 334 330 328 328 327 327 326 325 327 326 323 323 323 323 321 322 328 330 328 326 324 323 321 318 317
316 316 315 314 313 313 314 313 313 312 312 312 311 312 313 313 313 313 312 312 311 310 311 311 311 311 312 312 312 313 313 314 314 313 312 312 312 312 312 312 312 312 312 313 313 313 314 314 314 313 314 315 316 317 317 317 319 324 324 325 330 329 326 329 332 331 331 331 331 332 333 334 334 333 331 330 327 326 326 326 329 327 324 327 327 325 322 321 325 327 326 326 324 324 322 320 319
315 314 314 313 313 313 313 313 313 312 311 311 311 312 313 312 311 312 311 310 310 310 310 310 310 311 311 311 311 312 312 313 313 313 312 311 311 311 311 311 312 312 312 312 313 313 314 314 314 314 314 315 317 317 318 320 323 327 326 325 332 331 329 330 329 332 332 329 329 331 332 331 332 333 332 330 327 325 326 327 328 325 324 326 326 325 323 321 322 324 324 326 325 324 322 321 320
313 313 313 313 314 313 312 313 312 312 311 310 312 314 313 310 311 313 310 308 309 309 309 310 309 310 310 310 310 310 311 311 311 311 311 310 310 310 310 311 311 311 312 312 312 313 313 314 315 314 315 316 317 316 318 320 323 331 330 326 330 328 328 330 325 328 331 330 332 332 331 328 328 331 333 332 329 327 329 329 328 327 326 325 326 326 324 322 322 324 325 327 325 324 324 322 321
312 312 313 314 314 313 313 312 311 311 312 310 311 313 311 309 311 313 309 307 308 308 309 309 309 309 309 310 310 310 310 310 310 310 310 310 310 310 310 311 311 311 311 312 312 312 313 314 314 315 315 316 317 316 317 318 320 329 329 326 329 325 323 326 324 325 327 330 331 330 329 326 326 330 332 333 332 331 331 331 328 327 326 326 327 326 323 322 323 324 326 327 325 325 325 323 321
312 312 315 316 316 316 313 311 310 311 312 311 311 313 312 311 312 310 307 308 308 308 309 309 309 310 310 310 310 310 310 309 309 309 309 310 310 310 310 310 311 311 311 311 312 312 313 314 315 316 316 315 317 316 317 318 318 324 326 324 326 324 322 324 324 323 324 326 326 325 325 324 324 328 330 331 332 332 331 329 327 325 325 328 329 324 322 323 324 325 327 327 326 326 325 322 321
313 312 313 316 318 317 313 311 311 312 312 310 312 316 316 314 311 309 307 308 308 308 309 309 310 311 311 311 311 310 309 309 309 309 309 309 309 309 310 310 310 310 310 312 312 312 313 314 315 316 317 317 317 317 317 319 320 322 324 323 323 323 323 324 324 324 325 325 325 325 325 324 325 327 329 329 329 330 329 327 326 323 323 326 327 324 322 323 325 326 326 326 325 325 324 322 322
314 313 313 315 318 317 314 311 312 314 312 310 312 317 318 314 311 309 308 308 308 310 309 310 311 311 311 311 310 310 309 309 309 309 309 308 309 308 309 309 309 310 311 311 312 313 313 314 316 317 319 319 318 319 319 320 322 322 322 323 323 322 322 324 324 324 325 326 326 325 325 325 326 326 327 327 327 327 327 326 325 324 323 325 326 324 323 322 323 324 324 324 324 323 324 323 322
313 315 317 316 316 317 315 311 311 313 312 310 313 317 317 314 311 308 308 308 308 310 310 310 311 310 310 310 310 310 309 309 308 308 308 308 308 308 309 309 310 312 312 312 313 314 315 315 318 319 321 321 321 322 321 322 323 323 323 323 323 322 323 325 323 322 324 325 324 324 324 325 325 325 325 326 326 325 325 325 325 324 324 325 326 325 324 323 324 324 325 326 324 323 323 323 324
314 315 319 318 317 317 316 312 310 311 311 312 313 316 317 314 311 309 309 309 308 309 310 310 310 309 309 309 309 309 308 308 308 307 307 307 308 308 309 310 311 313 314 315 315 316 318 319 320 321 322 323 323 323 323 323 323 323 323 323 323 322 323 324 323 323 324 324 324 324 324 324 324 324 324 324 324 324 324 324 324 324 323 324 325 325 325 325 325 324 324 325 324 324 323 322 323
317 315 317 318 316 315 316 315 311 310 312 313 313 314 316 314 311 309 309 310 309 309 310 309 309 308 308 308 308 308 307 307 307 307 307 307 308 308 310 310 312 314 315 316 317 318 319 321 321 321 322 323 323 323 323 323 323 323 323 322 322 322 322 323 323 323 324 324 324 324 324 324 324 324 323 324 324 323 323 323 323 323 323 323 323 323 323 323 323 323 323 322 323 323 322 322 322
319 317 317 317 315 314 315 316 313 311 313 315 314 314 316 314 311 310 309 309 309 309 308 307 307 307 307 307 307 306 306 306 306 306 306 307 308 309 310 311 313 314 315 316 316 317 319 320 319 320 320 321 321 321 321 322 322 322 321 321 321 321 321 321 322 321 321 321 322 322 322 322 322 322 322 322 322 322 321 321 321 321 321 322 321 321 322 322 322 322 322 321 321 321 320 320 320
318 318 317 317 317 316 315 314 312 311 313 316 315 316 317 316 313 311 309 308 308 308 307 306 306 305 306 306 305 305 305 305 306 305 306 307 308 309 310 311 312 314 315 315 316 316 317 318 318 318 318 318 319 319 319 320 320 320 320 320 320 320 320 320 320 319 318 318 319 319 319 319 319 320 321 320 319 319 318 318 318 317 316 316 316 316 317 317 317 317 317 315 315 315 315 316 316
316 317 317 316 317 317 315 314 311 310 313 316 316 316 317 317 315 313 309 308 308 308 307 306 305 304 304 304 304 304 305 305 305 305 306 307 308 309 310 311 312 314 316 315 315 316 316 317 317 317 318 318 318 318 319 319 319 319 319 319 319 319 319 318 317 316 315 315 316 316 316 316 317 317 316 314 312 312 312 313 312 311 310 309 309 309 309 309 310 310 309 309 310 310 310 310 311
314 315 317 316 317 317 315 313 310 310 313 315 314 314 315 316 316 314 309 309 309 308 308 307 305 303 303 303 303 304 304 304 305 305 306 307 308 309 309 310 312 313 315 316 315 315 316 317 317 317 317 318 317 317 317 317 317 318 317 316 316 316 315 314 312 310 309 310 310 310 311 310 310 310 309 308 307 307 307 307 307 306 306 306 306 306 306 306 306 306 306 306 307 306 307 307 306
314 315 316 316 317 316 314 311 309 309 312 315 313 313 315 315 316 314 309 309 309 307 307 306 304 303 302 303 303 304 304 304 304 305 305 307 307 308 309 310 312 313 315 316 315 315 316 316 316 317 317 317 316 314 314 313 313 314 312 312 311 310 309 308 307 306 305 306 306 306 306 306 306 306 306 306 306 306 306 305 305 305 305 305 305 305 304 304 304 304 304 304 304 304 304 304 304
314 314 315 316 316 316 316 313 309 309 310 312 312 312 314 315 315 313 308 306 306 303 303 303 303 303 302 303 303 303 303 303 304 304 305 306 307 307 309 311 312 313 315 316 316 316 316 316 316 316 315 314 313 311 310 309 309 309 308 307 307 306 306 305 305 305 305 305 305 305 304 304 304 304 305 304 304 304 304 304 304 304 304 304 304 304 304 304 304 304 303 303 303 303 303 303 303
314 314 315 316 316 315 316 314 310 310 309 309 311 314 317 317 317 314 307 303 303 302 302 302 301 302 302 302 303 303 303 303 304 304 305 306 307 307 309 311 312 313 314 315 315 315 315 314 313 311 310 308 308 307 307 306 306 306 305 305 305 304 304 304 304 304 304 304 304 304 303 303 303 303 303 303 303 303 303 303 303 303 303 303 303 303 303 303 303 303 302 302 302 302 301 301 301
315 314 314 314 315 314 314 313 312 314 315 311 312 319 321 317 316 315 308 304 304 303 302 303 301 300 301 301 302 303 303 304 304 305 306 306 307 307 309 311 312 312 313 312 312 311 310 308 307 306 305 305 305 305 305 305 304 304 304 304 304 304 304 303 303 303 303 303 303 303 303 302 302 302 303 302 302 302 302 302 302 302 302 302 302 301 301 301 301 300 300 299 299 299 298 298 298
316 315 313 312 313 314 313 313 314 317 319 311 309 318 322 317 317 315 309 307 306 303 303 303 301 300 300 300 301 302 303 304 305 306 306 306 306 307 308 309 310 310 309 308 307 306 305 305 304 304 304 304 304 304 303 304 303 303 303 303 303 303 303 303 303 302 302 302 302 302 302 302 301 302 302 302 301 301 301 301 301 301 300 300 300 299 299 299 298 297 297 296 296 296 295 295 294
318 315 313 312 312 313 313 314 315 317 317 311 309 314 318 318 318 314 309 309 309 305 304 304 302 301 300 300 301 302 303 304 305 305 305 305 306 306 306 306 306 306 305 305 304 304 304 303 303 303 303 303 303 303 302 302 302 302 302 303 303 303 302 302 302 302 301 301 301 301 301 301 300 300 300 300 299 299 299 299 298 298 298 297 297 296 296 295 294 294 294 293 293 293 293 293 292
316 311 310 311 311 313 313 314 315 314 314 316 314 313 316 319 317 312 308 310 312 310 306 304 303 302 300 300 301 302 304 304 304 304 305 305 305 305 305 304 304 304 304 303 303 303 303 303 303 303 303 303 302 302 302 301 302 302 302 302 302 301 301 301 301 300 300 300 300 300 299 299 299 298 298 298 297 297 296 296 295 295 295 294 294 293 293 292 292 292 292 291 291 291 291 291 290
312 308 309 310 310 311 312 314 315 313 314 318 317 314 317 320 318 314 312 312 315 313 308 305 305 302 301 301 301 302 303 303 304 304 304 304 304 304 304 303 303 303 303 302 302 302 302 302 302 302 302 302 302 301 301 301 301 301 301 301 301 300 300 300 300 299 299 299 299 298 298 297 297 297 296 295 295 295 294 294 293 293 293 292 292 291 291 291 291 291 290 290 290 290 290 289 289
309 310 312 312 311 310 311 312 312 314 316 318 317 315 317 320 319 318 316 313 313 312 308 306 305 302 301 301 300 301 302 302 303 303 303 303 303 303 303 302 302 302 302 302 302 302 302 302 302 302 302 301 301 301 301 300 300 300 300 300 300 299 299 299 299 298 298 298 297 297 296 296 295 295 294 294 294 293 293 292 292 292 291 291 291 291 290 290 290 290 289 289 289 289 289 289 289
309 313 314 315 314 312 312 312 312 317 320 315 311 312 315 319 319 317 316 311 310 311 309 307 305 303 301 301 300 301 301 302 302 302 302 302 302 302 302 302 302 302 301 301 301 301 301 301 301 301 301 301 301 300 300 300 300 299 299 299 299 298 298 298 297 297 297 296 296 296 295 295 294 293 293 293 292 292 292 291 291 291 290 290 290 290 290 289 289 289 289 289 289 289 289 289 289
310 313 314 319 319 316 317 317 315 318 318 310 307 310 314 316 317 316 315 311 308 308 307 307 306 304 302 301 301 301 301 302 302 302 302 302 302 302 302 302 301 301 301 301 301 301 301 301 301 301 301 300 300 300 300 299 299 299 298 298 298 297 297 297 297 297 296 296 295 294 294 293 293 292 292 292 292 291 291 290 290 290 290 290 290 289 289 289 289 289 289 289 289 289 289 288 288
311 314 316 321 321 319 321 319 316 318 315 308 307 310 314 315 315 314 312 308 306 304 303 304 305 303 302 301 301 301 301 301 301 301 302 302 302 302 301 301 301 301 301 300 301 300 300 300 300 301 301 300 300 299 299 299 299 298 298 297 297 297 296 296 296 296 295 295 294 293 293 292 292 292 292 292 291 291 290 290 290 290 290 289 289 289 289 289 289 289 289 289 289 289 289 289 289
312 314 316 319 320 321 323 321 319 318 313 308 308 312 316 317 313 309 306 303 302 302 301 301 302 302 302 301 301 301 301 301 301 301 302 302 302 301 301 301 301 301 301 300 300 300 300 300 300 301 301 300 299 299 298 298 298 298 297 297 297 296 296 296 296 295 295 294 293 293 293 292 292 292 292 291 291 290 290 290 290 289 289 289 289 289 289 289 289 289 289 289 289 289 288 288 288
311 311 314 317 318 317 316 314 313 312 312 311 310 313 315 314 309 303 302 302 301 301 301 300 301 301 301 301 301 301 301 300 301 301 301 301 301 301 301 301 300 300 300 300 300 300 300 300 300 300 300 299 299 298 298 298 297 297 297 296 296 296 296 295 295 295 294 294 293 292 292 292 292 291 291 290 290 290 290 290 290 290 290 290 290 290 290 290 290 290 289 289 289 289 289 288 288
311 310 313 314 314 314 313 311 308 308 315 317 312 313 313 312 310 304 302 304 303 302 302 301 301 300 300 300 300 301 301 300 301 301 301 301 301 301 300 300 300 300 300 300 300 299 299 299 299 299 299 299 298 298 297 297 297 297 296 296 296 295 295 295 294 294 293 293 292 292 291 291 291 291 291 291 291 290 290 290 290 290 290 290 290 290 290 290 290 290 290 289 289 289 289 289 288
311 312 314 312 311 313 314 316 313 312 318 318 313 315 315 315 315 309 305 306 306 304 303 302 301 300 300 300 301 301 301 301 301 301 301 301 301 300 300 300 300 300 300 299 299 299 299 299 299 298 299 298 298 297 297 296 296 296 296 296 295 295 294 294 293 293 292 292 291 291 291 291 291 290 290 290 290 290 290 290 290 290 290 290 290 290 289 289 289 289 289 289 289 288 288 288 288
309 312 313 313 315 316 314 317 318 317 319 317 313 314 314 316 316 312 310 310 308 306 303 301 301 301 300 301 301 302 301 301 301 301 301 301 301 300 300 300 300 299 299 299 299 298 298 298 298 298 298 297 297 297 296 296 296 295 295 295 295 294 293 292 292 292 291 291 291 290 290 290 290 290 290 290 290 290 290 289 289 289 289 289 289 289 289 288 288 288 288 288 287 287 287 286 286
307 309 311 311 314 316 315 315 316 318 319 318 315 314 314 315 316 314 313 312 311 309 305 302 302 301 301 301 301 301 301 301 301 301 301 301 301 300 300 300 300 299 299 299 298 298 297 297 297 296 296 296 296 296 296 295 295 295 294 294 293 292 292 291 291 291 290 290 290 290 290 290 290 290 290 289 289 289 289 289 289 288 288 288 288 288 288 288 288 287 287 287 286 286 286 286 286
309 311 312 311 311 312 313 313 313 315 317 317 317 318 316 314 313 314 314 314 312 311 308 305 303 302 302 301 301 302 302 301 301 301 301 301 301 300 300 299 299 299 298 298 298 297 297 296 296 296 295 296 296 295 295 295 294 294 293 292 291 291 291 291 290 290 290 289 289 289 290 290 289 289 289 289 289 289 288 288 288 288 288 288 288 288 288 287 287 287 286 286 286 285 285 285 285
312 313 313 313 313 313 315 316 313 312 314 316 316 318 318 312 308 310 311 311 311 309 308 307 304 303 303 301 301 302 302 302 302 302 301 301 300 300 299 299 299 298 298 298 297 297 296 296 295 295 295 295 295 295 294 293 293 292 291 291 290 290 290 290 290 289 289 289 289 290 290 289 289 289 289 289 289 288 288 288 288 288 288 287 287 287 287 287 287 286 286 285 285 285 285 285 285
Wind_Speed
4 4 4 4 3 2 1 2 1 2 1 4 3 1 3 1 2 1 2 1 0 2 1 3 1 3 1 3 4 3 3 5 6 5 4 4 5 5 2 1 1 1 5 9 12 15 16 16 16 15 15 14 13 12 11 10 9 8 6 5 4 4 3 2 1 0 2 2 1 2 4 4 4 5 7 6 5 4 5 4 3 3 3 2 3 4 5 5 5 6 6 6 6 6 6 5 4
2 2 2 2 1 1 0 2 1 3 2 4 2 1 3 1 1 2 4 3 3 3 2 2 3 4 3 3 3 2 1 3 6 6 5 5 6 5 3 2 2 3 5 8 10 14 16 16 15 15 14 14 13 12 11 10 9 8 7 6 5 5 4 4 1 1 2 2 1 2 3 3 4 5 6 5 5 5 4 3 2 2 2 2 2 3 4 5 5 6 6 6 4 4 4 4 4
2 2 2 2 1 1 2 2 1 3 3 4 3 2 1 1 2 3 3 4 3 3 2 1 3 2 3 2 1 1 4 5 5 5 4 6 6 5 4 4 3 5 6 8 9 12 15 16 16 14 14 14 13 11 11 10 9 9 8 7 6 6 5 4 1 1 2 2 1 2 3 3 3 3 5 5 5 5 5 4 4 2 2 2 1 2 4 6 6 6 7 6 4 3 3 4 4
4 3 3 4 2 2 1 1 1 2 2 3 3 3 1 1 4 3 2 3 2 2 2 1 1 0 2 1 3 2 5 5 6 5 4 7 6 5 6 5 4 6 6 8 9 11 14 15 16 15 14 13 12 11 11 10 10 9 9 8 7 6 5 2 1 0 2 2 2 2 3 3 2 3 4 4 5 6 6 6 5 3 1 1 2 3 5 7 8 6 6 5 4 4 3 4 4
6 3 4 4 2 1 0 1 1 1 2 2 3 4 1 0 2 3 3 2 2 3 2 1 0 2 1 3 3 2 5 4 5 6 4 6 7 7 8 7 6 6 7 8 9 10 12 14 15 15 14 13 12 11 11 10 9 9 9 8 7 6 4 1 2 2 1 3 3 3 3 3 2 2 4 5 6 8 7 6 5 2 1 2 4 5 6 8 8 5 3 4 5 5 5 5 5
6 5 4 4 3 2 1 2 2 2 3 2 3 4 1 1 2 3 2 1 2 3 3 1 2 2 2 3 4 4 5 3 4 5 4 5 6 8 9 8 6 6 7 8 9 10 11 13 15 15 15 14 12 11 11 11 10 10 9 9 8 6 5 3 3 3 2 3 3 3 2 2 1 2 4 6 8 9 9 5 3 1 3 4 6 6 7 9 6 3 3 4 6 7 7 6 6
5 4 4 4 4 1 1 2 3 4 3 2 3 4 2 2 2 3 1 2 2 3 4 3 4 1 3 3 3 5 6 4 4 3 3 4 6 8 10 9 7 6 7 7 9 10 10 11 13 14 14 14 13 12 11 11 11 11 10 9 8 7 6 4 4 5 4 3 3 3 1 1 2 4 5 7 8 9 8 4 2 0 2 4 6 7 8 8 6 4 3 4 6 7 7 6 5
4 3 2 2 2 1 1 3 3 2 2 1 3 1 2 3 2 2 0 0 1 2 3 3 4 1 3 4 3 6 8 6 4 3 4 4 7 9 10 9 8 7 6 7 8 10 10 11 11 13 13 13 13 12 11 11 11 11 10 8 8 7 6 5 4 6 6 4 3 2 1 2 2 3 4 6 7 8 8 4 2 1 2 3 5 5 6 7 8 8 6 5 5 5 5 4 3
4 3 2 1 1 1 2 3 3 1 1 1 2 2 2 3 2 2 0 1 2 2 3 3 3 2 3 4 6 9 10 8 6 4 5 5 7 8 10 9 8 7 6 7 8 9 10 11 11 12 12 12 12 11 10 11 11 10 10 9 8 7 7 5 5 6 6 4 3 1 1 2 2 3 4 5 5 6 7 5 3 2 2 2 2 3 5 8 10 10 7 5 4 4 3 1 1
3 3 2 1 1 2 3 2 3 1 1 0 2 2 3 2 2 2 1 2 2 1 3 2 3 5 2 4 6 8 10 10 8 6 5 5 6 7 8 8 8 7 6 7 8 8 9 10 11 12 12 12 12 11 10 10 10 10 10 9 8 8 7 7 6 5 5 5 4 2 2 2 2 3 4 5 5 5 6 5 3 2 2 3 4 7 7 9 10 8 6 5 4 2 1 1 1
2 3 2 2 2 3 3 3 3 2 1 1 2 2 2 3 2 2 2 1 2 1 3 3 3 4 2 4 5 6 9 8 6 6 5 3 3 4 5 6 7 7 6 6 7 7 8 9 11 12 12 13 12 12 12 11 11 11 11 11 9 8 8 7 7 7 6 5 4 3 3 2 2 4 4 4 4 4 5 4 4 3 3 4 7 8 9 11 11 8 6 5 4 2 0 1 2
1 1 1 2 2 2 1 3 4 3 2 2 3 1 0 2 3 1 1 1 2 0 3 3 2 3 1 5 5 5 6 5 4 4 3 3 2 3 3 4 5 6 5 5 5 6 7 8 10 11 12 13 13 14 13 13 13 12 12 12 11 10 9 9 9 8 8 6 5 5 4 4 4 4 5 5 4 4 4 3 4 4 4 6 7 8 10 12 12 10 6 4 3 2 1 2 3
1 1 2 2 0 0 1 2 3 2 3 3 3 1 0 2 2 0 1 0 1 1 3 2 1 3 1 3 5 4 4 6 3 1 1 4 5 5 5 4 4 5 4 3 4 5 6 7 8 10 12 13 14 14 14 14 15 14 13 13 13 12 12 11 10 9 9 7 6 6 6 5 5 5 5 5 6 5 5 4 5 5 5 7 8 9 11 11 12 11 7 4 2 1 1 3 3
3 2 0 2 1 1 1 1 3 3 4 4 2 1 1 1 1 2 1 2 2 2 2 2 1 3 2 1 4 4 5 5 3 2 2 4 6 6 7 7 6 5 3 3 3 4 5 6 7 8 10 12 14 15 15 15 16 15 14 14 14 14 13 13 12 10 10 8 7 7 7 7 7 6 6 7 7 6 6 6 5 7 7 9 10 10 11 12 12 11 9 6 3 1 1 3 4
4 4 2 2 2 2 2 0 2 4 3 4 1 1 0 2 3 3 1 3 2 2 3 1 2 3 1 1 1 3 8 6 5 3 3 4 5 6 8 8 9 7 6 4 4 4 4 5 6 6 8 10 13 15 15 16 16 16 15 15 15 15 15 14 13 11 10 9 8 8 9 9 8 8 8 8 8 8 8 8 8 8 8 10 12 11 12 12 11 10 9 8 5 3 1 2 4
5 4 1 2 2 2 3 2 2 3 4 3 1 1 2 3 3 3 1 3 3 3 3 2 2 1 1 3 5 8 10 8 6 5 4 5 5 6 7 9 10 10 9 7 6 6 6 6 6 6 7 8 10 13 15 15 16 16 16 16 16 16 15 14 13 12 11 11 10 9 10 10 9 9 10 9 9 9 9 10 9 9 9 12 13 13 12 11 10 9 9 8 7 4 2 1 4
3 2 1 1 2 2 3 5 3 2 5 3 2 1 1 1 1 0 3 4 3 3 2 3 0 1 2 4 7 8 8 7 6 6 7 7 7 7 8 9 10 12 12 10 9 9 9 9 8 8 7 7 8 10 13 14 15 16 15 15 15 16 15 14 13 12 11 11 11 10 10 9 9 9 9 10 10 10 10 12 11 10 10 13 15 14 12 10 9 9 10 9 8 6 3 2 3
1 1 1 1 2 1 2 5 3 2 5 5 2 1 1 1 2 3 4 1 1 4 1 1 3 2 4 5 6 6 6 5 5 7 8 10 11 11 10 10 11 12 13 12 11 11 10 10 10 10 9 9 8 9 11 13 14 14 13 13 13 14 14 13 13 12 11 11 11 10 9 9 9 8 9 11 11 10 11 13 13 11 11 13 15 16 15 13 10 8 11 12 10 9 6 3 3
1 0 1 1 2 1 1 3 3 1 4 4 2 2 0 3 3 3 3 2 1 3 2 7 6 2 6 5 4 6 6 5 3 6 8 11 12 13 13 13 13 13 13 13 12 12 12 12 12 12 11 10 9 8 9 11 12 12 13 14 14 14 13 12 13 12 12 12 11 10 10 9 9 8 9 11 11 11 11 13 12 11 11 11 12 14 15 15 11 9 12 13 12 11 8 5 3
1 1 0 2 2 0 1 3 2 2 1 1 2 2 2 4 4 2 4 5 2 1 3 6 5 1 5 3 2 5 5 5 3 3 6 9 11 12 12 12 13 13 12 13 13 13 13 13 14 13 12 11 10 9 8 9 10 11 12 13 14 13 13 12 12 12 12 13 12 11 11 11 10 10 11 11 12 12 11 12 11 11 12 11 11 13 13 13 12 12 13 14 14 13 11 8 4
1 1 2 4 2 1 3 3 3 3 2 1 1 2 4 3 4 4 4 6 2 5 3 3 3 4 4 3 2 4 4 5 4 3 3 5 6 7 8 9 10 11 10 10 11 12 12 13 14 14 14 13 12 10 9 8 8 9 10 11 12 13 12 12 11 11 11 12 13 12 12 12 12 12 11 11 12 13 12 11 10 11 13 12 11 10 10 11 13 15 14 14 15 15 15 12 8
2 1 3 4 3 1 4 3 3 3 3 2 3 3 3 3 4 5 6 6 2 4 5 5 7 7 4 4 3 4 4 5 5 4 3 3 3 4 4 5 6 7 8 7 8 9 10 11 13 15 15 14 12 10 9 8 7 7 8 8 9 10 13 12 12 13 11 10 11 10 9 9 10 11 13 12 11 11 12 11 11 11 12 12 12 10 10 11 14 16 13 15 16 16 17 15 11
0 2 2 3 4 2 2 3 3 3 4 4 4 4 4 4 5 8 9 8 6 5 5 6 8 7 6 5 4 4 4 6 5 4 4 3 3 3 3 3 4 5 5 6 7 8 9 10 10 12 15 15 13 11 9 8 8 7 6 7 6 7 11 11 10 11 11 10 11 11 11 11 10 10 11 12 12 12 11 10 10 10 11 13 14 14 13 13 15 14 9 14 18 17 17 15 13
2 1 3 3 5 4 3 4 5 6 6 7 6 6 6 6 5 7 9 11 11 9 6 6 7 7 7 5 4 4 4 5 6 6 5 4 3 3 3 3 3 4 4 5 5 6 7 7 8 9 13 16 14 12 10 9 9 9 7 7 6 6 9 11 10 10 10 11 11 11 14 16 15 12 10 10 12 13 12 12 10 10 12 14 15 14 14 14 14 10 8 14 18 17 16 14 14
2 1 3 2 4 5 6 7 10 10 10 10 9 8 8 7 6 6 6 10 10 7 5 5 7 8 7 6 5 4 3 4 6 7 7 5 4 3 3 3 3 3 3 3 3 3 4 4 5 7 12 16 16 13 11 10 10 10 9 8 6 6 8 10 11 12 12 12 11 12 14 14 13 13 13 9 9 11 10 11 10 11 13 13 13 13 13 13 11 11 11 13 15 15 15 13 14
1 1 1 3 5 6 8 10 10 10 10 8 8 8 8 7 8 6 7 9 8 6 7 8 8 8 7 6 5 3 1 2 4 6 7 6 5 4 3 2 2 2 1 1 1 1 1 1 3 4 10 15 16 15 13 11 11 8 7 10 9 10 10 9 12 12 13 11 9 11 15 13 9 9 9 8 7 6 8 10 9 9 10 10 10 11 12 12 11 12 14 13 12 12 13 13 13
1 1 4 6 7 8 9 8 8 8 8 8 8 6 3 5 6 3 6 10 9 9 9 9 8 7 5 3 2 1 1 0 1 3 5 4 4 3 2 1 1 1 0 1 1 1 2 1 1 3 8 13 15 15 14 13 13 11 10 12 12 14 14 12 14 14 14 13 9 9 15 17 11 8 7 9 11 9 10 12 10 8 8 9 9 9 10 12 11 11 13 13 10 9 11 11 10
1 4 6 7 7 8 7 6 6 5 5 6 7 4 2 5 4 1 5 10 10 10 10 8 7 5 1 1 1 2 2 2 2 1 2 2 2 2 1 1 1 2 1 1 1 2 3 3 3 4 7 12 14 15 15 15 16 16 15 14 13 15 15 14 14 15 15 16 13 11 14 17 15 12 10 8 11 13 13 13 10 9 8 8 8 9 11 11 10 10 12 12 9 8 8 9 10
2 3 6 7 7 6 2 1 1 2 1 4 6 3 3 6 3 3 6 11 11 9 8 7 5 3 2 3 4 4 4 4 4 2 1 2 2 1 1 1 1 2 2 2 2 2 3 4 5 6 7 10 13 15 15 16 17 17 16 16 14 14 14 13 13 13 12 12 12 10 12 14 14 14 11 7 7 10 10 9 8 8 7 8 9 9 10 10 10 10 12 13 10 9 8 8 8
2 0 3 7 7 3 2 2 1 1 1 6 5 3 3 6 5 4 5 10 11 7 7 6 5 4 5 5 5 5 5 5 3 3 2 1 0 1 0 1 1 1 2 2 3 3 4 5 6 7 8 9 12 13 15 16 16 16 15 15 14 13 12 10 9 8 7 6 6 6 7 9 10 12 10 7 6 7 7 6 7 8 8 9 10 10 10 9 8 8 10 11 10 10 10 9 8
2 1 1 2 4 0 3 2 3 1 2 5 5 5 1 5 7 5 6 12 11 6 7 7 6 7 7 7 6 6 5 4 3 3 2 1 0 1 1 1 2 2 3 3 3 3 4 5 6 7 8 9 10 12 14 14 14 14 13 12 11 11 10 8 7 6 5 6 5 5 5 6 8 8 8 7 7 8 8 8 8 8 7 7 8 9 9 8 7 7 9 11 11 11 11 11 10
1 3 3 1 2 1 2 3 3 2 1 3 5 4 1 4 8 6 8 14 12 7 8 9 8 9 9 8 7 6 5 4 3 2 2 1 1 2 1 2 3 4 4 4 4 4 4 5 7 8 8 8 9 11 11 12 12 12 11 10 9 9 8 7 6 5 5 6 6 6 6 5 4 3 4 6 7 8 7 7 8 8 8 7 8 8 7 8 9 9 10 12 13 13 13 13 13
1 3 4 2 3 2 1 2 2 3 1 2 4 4 1 3 7 8 8 13 12 8 10 11 11 11 10 9 8 6 5 4 3 3 3 2 3 2 2 2 4 5 6 7 7 6 7 7 8 9 10 9 9 10 10 10 10 10 9 9 8 7 7 6 5 4 3 3 3 3 3 2 0 1 1 2 3 3 2 2 3 4 5 6 8 8 8 9 10 9 9 12 14 14 13 13 13
2 2 4 3 3 3 2 2 3 2 2 2 3 5 4 3 8 9 8 11 12 9 10 11 11 12 11 9 8 6 5 4 4 4 4 4 4 5 4 4 5 6 7 8 8 8 10 10 10 10 11 11 10 10 10 9 9 10 10 10 9 8 7 6 6 5 4 4 4 4 4 3 3 3 2 1 1 2 2 2 2 2 2 3 4 6 6 6 7 8 8 9 11 11 11 11 11
1 3 3 3 4 5 5 2 1 1 3 4 3 7 8 4 9 9 8 10 10 8 10 11 12 12 11 9 8 6 5 5 5 5 5 6 6 6 6 6 7 7 8 9 10 11 12 12 11 10 12 12 11 10 9 9 10 9 9 10 10 8 7 7 6 4 3 4 4 3 3 2 1 2 2 2 1 1 2 3 3 3 4 4 5 5 6 6 7 9 9 10 11 12 12 13 14
1 2 2 4 5 5 3 1 1 2 4 8 8 10 11 7 9 10 8 9 9 8 10 11 11 12 10 9 8 6 6 6 6 6 6 7 7 7 7 6 7 9 10 10 11 12 14 14 13 12 13 13 13 11 10 10 10 9 10 9 9 9 8 7 5 4 3 3 4 3 1 1 1 1 1 1 1 2 2 2 3 4 4 5 5 5 6 7 7 9 10 11 12 12 13 14 15
2 1 2 4 6 6 1 3 1 1 4 8 7 10 13 12 10 9 9 8 9 9 10 10 10 10 10 9 8 7 7 7 7 7 8 8 8 8 8 7 7 9 11 11 12 13 14 14 14 14 14 13 12 10 9 9 9 9 9 8 8 9 8 5 4 4 4 4 4 3 3 3 3 3 3 4 4 4 4 4 4 4 4 5 5 6 6 7 8 8 9 10 9 10 11 12 14
2 3 4 5 6 7 1 3 1 1 3 6 3 8 13 14 12 6 10 9 9 11 11 9 9 10 10 10 8 7 7 7 8 8 9 10 9 9 8 8 8 10 11 12 12 14 14 14 14 14 14 11 10 9 8 7 7 7 7 8 8 9 9 8 9 11 11 11 11 10 10 10 9 8 9 9 10 10 10 9 9 9 9 10 10 10 10 10 9 9 10 10 11 12 12 14 15
4 3 4 5 5 5 2 2 1 2 4 5 1 6 12 13 12 5 9 8 7 10 10 8 8 9 10 10 9 9 8 8 9 10 11 11 10 9 9 9 9 11 13 13 13 15 15 15 14 14 12 9 9 10 9 9 9 9 10 12 12 14 15 15 16 17 17 17 16 16 16 15 14 14 14 13 13 13 13 12 12 13 13 12 12 11 11 10 11 11 11 11 12 13 13 14 15
6 5 5 6 3 2 4 1 3 2 2 3 3 6 10 12 13 6 7 5 4 7 10 9 10 10 10 12 11 10 10 9 10 11 12 12 12 11 11 12 12 13 14 14 15 15 15 15 14 13 12 11 12 14 14 15 16 16 16 17 17 18 20 20 20 19 18 17 18 17 17 17 16 15 15 14 14 14 14 14 14 14 13 13 12 12 12 12 13 13 13 13 13 13 14 16 17
7 7 8 8 5 6 7 0 2 3 3 2 4 8 9 10 12 6 5 4 4 5 7 8 10 12 12 12 12 12 11 11 12 13 14 14 14 14 14 15 15 16 16 16 16 16 16 16 16 16 17 18 19 19 20 20 20 20 20 19 19 20 20 19 18 18 17 16 16 16 16 15 15 14 13 13 13 13 13 12 13 12 12 12 12 12 13 13 13 13 14 14 14 15 15 16 17
5 8 12 12 10 8 6 0 1 5 4 3 2 7 6 3 6 5 3 4 5 5 6 8 8 10 12 12 13 13 12 13 14 15 16 16 16 17 18 18 18 18 18 18 19 19 20 21 22 22 23 23 23 23 22 21 20 19 18 18 18 18 18 17 17 16 15 15 14 14 13 12 11 11 10 10 10 10 9 9 10 10 10 11 11 12 12 12 13 13 14 14 14 14 14 14 15
4 4 10 13 11 7 5 4 3 5 3 1 1 6 5 3 4 4 3 4 6 5 7 8 8 9 10 12 14 14 14 16 17 18 19 19 20 21 21 22 22 22 22 23 24 24 25 25 25 25 25 25 24 23 21 20 19 18 16 16 15 14 14 15 15 14 13 13 12 10 9 9 8 7 7 7 7 7 7 7 8 9 9 10 10 11 11 11 12 13 13 13 13 13 13 13 14
3 1 4 9 9 8 8 7 6 4 2 1 3 4 6 7 5 2 3 4 6 7 8 8 9 9 10 12 14 16 17 20 22 23 23 24 25 25 26 26 26 27 27 28 28 27 27 26 25 25 24 24 23 22 20 18 17 16 14 12 11 11 11 12 12 12 11 10 9 8 7 6 6 5 5 5 6 6 6 7 8 8 9 9 10 10 11 12 12 12 13 13 13 13 13 14 14
1 3 2 4 4 5 6 6 6 2 2 4 6 5 5 8 3 3 2 5 9 9 10 11 12 12 13 16 17 17 20 23 25 27 27 28 28 29 29 29 30 30 30 29 29 28 27 26 25 24 23 23 22 20 19 17 14 12 10 9 9 10 10 11 10 10 10 8 7 6 6 5 5 5 6 6 6 7 7 8 8 9 9 10 11 11 12 12 12 13 13 14 14 15 15 15 14
4 6 5 6 4 3 3 3 3 1 4 8 9 10 6 7 4 4 2 5 8 6 8 11 15 16 16 17 19 19 22 25 27 29 30 30 30 30 30 30 30 30 30 29 28 27 26 25 24 23 22 22 21 19 17 15 12 10 9 8 8 9 10 10 9 9 8 7 5 5 5 5 5 5 6 7 7 7 8 9 9 10 11 11 12 12 12 12 13 13 14 15 15 15 15 16 16
9 7 6 6 4 3 2 1 1 3 6 7 9 13 10 6 3 7 4 1 2 4 6 10 13 15 17 19 20 22 24 26 28 30 31 31 31 30 30 29 29 29 29 28 27 26 25 24 23 22 21 21 20 18 16 14 12 10 9 8 8 9 10 9 8 7 7 6 5 5 5 5 5 6 6 7 7 8 9 10 10 11 12 12 12 13 13 14 14 14 15 15 15 15 16 16 16
6 4 4 4 2 2 2 2 3 6 6 1 2 7 11 9 4 4 2 2 2 3 5 10 15 17 18 21 23 25 27 29 31 31 32 32 31 30 29 29 28 28 27 27 26 25 24 23 21 21 21 20 19 17 15 13 11 10 8 8 8 9 9 8 6 6 6 5 4 4 4 5 5 6 6 7 8 8 9 10 11 11 11 12 13 13 14 14 14 15 15 15 15 15 15 15 15
3 4 6 5 3 3 4 3 4 7 4 2 2 3 6 9 7 7 4 3 3 1 1 6 14 18 19 22 26 29 30 31 32 33 33 33 32 31 30 28 28 27 26 25 25 24 23 22 20 19 20 19 18 16 14 12 11 10 9 8 8 8 8 7 5 5 5 4 3 4 4 4 5 5 6 7 8 9 10 10 11 12 12 13 13 14 14 14 15 15 16 16 16 16 16 17 17
8 8 8 8 5 4 5 4 3 5 1 3 1 3 3 5 6 8 5 3 4 3 2 2 9 17 21 25 29 30 31 33 33 33 34 33 32 31 30 29 28 27 26 25 24 23 22 21 20 18 18 18 17 16 14 12 11 9 9 8 7 7 6 5 4 3 3 3 3 3 3 4 4 4 5 7 8 9 10 11 12 13 13 14 14 15 15 15 16 16 16 17 17 18 18 18 19
8 5 4 6 6 4 5 4 3 3 1 2 1 3 4 3 1 1 2 2 2 2 1 3 8 16 24 28 31 32 33 33 33 33 33 33 32 31 30 29 28 27 26 25 24 23 22 21 19 17 17 17 16 15 14 12 11 10 9 8 7 6 5 3 3 3 2 2 2 2 1 2 3 4 5 7 8 9 11 12 13 14 14 15 16 16 16 17 17 18 18 18 18 18 19 19 19
4 1 1 5 4 2 1 1 0 1 1 2 4 3 3 2 1 2 1 1 3 2 2 5 9 15 24 29 31 33 34 34 34 34 33 33 32 31 30 29 28 28 27 26 25 23 22 21 19 17 16 16 16 15 14 12 11 10 9 8 7 6 5 4 3 3 3 3 2 1 1 1 3 4 6 7 8 10 11 13 14 15 16 16 17 18 19 19 20 20 21 21 22 22 22 22 22
3 3 5 3 1 2 1 1 2 1 5 3 5 5 3 1 2 3 3 3 4 4 4 6 9 14 22 29 33 36 36 36 36 35 34 33 32 31 30 29 29 28 27 26 25 23 22 21 20 18 17 17 16 15 14 13 11 10 10 9 8 7 6 5 5 5 4 4 3 2 2 2 3 4 6 7 9 10 12 13 14 15 16 17 18 19 20 21 21 22 23 24 24 25 25 25 25
5 5 6 3 1 1 2 4 1 2 7 3 5 8 6 5 3 3 4 5 6 7 6 7 9 13 20 28 37 39 39 38 37 35 35 34 34 32 31 30 29 27 27 26 24 23 22 21 20 18 17 16 16 15 14 13 12 11 11 10 9 8 8 7 6 6 5 4 3 3 3 4 4 6 7 8 10 11 12 13 14 15 17 17 18 19 19 20 21 21 22 22 23 23 23 24 24
1 2 4 3 2 4 4 4 3 4 6 4 4 7 6 7 6 5 7 9 10 10 7 7 11 15 20 28 38 41 40 39 37 36 36 36 36 34 32 31 30 28 27 26 25 24 23 22 20 19 17 16 16 15 15 14 13 12 12 11 10 9 9 8 6 6 5 5 5 4 5 5 6 7 8 9 10 11 12 13 14 16 17 17 18 18 19 19 19 20 20 20 21 21 21 22 22
1 1 4 1 2 3 4 3 2 4 5 4 3 3 5 7 8 10 13 12 11 11 9 9 14 19 25 33 39 42 42 41 40 39 39 39 38 35 34 32 31 29 28 26 26 25 24 23 22 21 19 18 17 16 15 15 15 14 13 13 12 10 9 8 7 6 6 6 6 6 6 6 6 7 8 9 10 12 13 14 15 16 17 18 18 19 19 19 19 19 19 19 20 20 21 22 22
6 7 8 5 2 1 2 3 1 2 4 4 4 5 4 4 4 9 12 9 8 10 10 10 14 23 32 37 41 43 44 44 43 42 42 41 39 36 34 33 31 30 29 28 27 26 25 25 24 22 20 18 18 17 16 16 16 15 14 13 12 10 9 8 8 7 7 7 7 6 6 6 6 7 8 10 11 13 14 16 17 18 19 19 20 20 20 20 20 20 20 20 21 21 22 23 24
7 9 11 11 8 4 4 6 3 2 4 3 3 5 3 3 1 2 4 1 2 6 7 8 14 24 31 34 38 43 46 47 45 45 44 42 40 38 36 35 33 31 30 29 28 28 27 26 25 23 21 19 18 18 18 17 17 16 15 13 12 11 10 9 9 8 8 8 8 7 6 6 7 8 10 12 13 15 16 18 19 20 20 21 21 22 22 22 22 22 22 22 23 23 24 26 27
Wind_Direction
269 261 261 272 285 292 338 291 157 78 298 103 85 124 104 26 321 293 119 132 191 73 290 304 214 191 281 328 356 356 346 4 10 21 60 29 8 37 69 62 53 142 168 180 190 189 189 190 185 182 180 181 180 182 182 184 188 188 192 202 219 232 256 259 163 66 311 309 13 136 144 131 112 94 93 94 84 69 62 65 64 69 62 26 6 354 352 355 3 16 22 16 12 10 9 6 4
256 234 234 238 278 246 159 306 240 127 154 118 96 58 82 205 236 87 79 59 44 26 302 289 211 217 299 321 311 280 26 24 19 49 60 25 29 41 92 101 89 144 160 174 187 189 189 190 189 186 183 186 185 183 186 189 193 195 201 210 227 243 261 279 260 202 268 279 293 159 148 132 114 94 87 83 71 55 44 37 22 39 40 3 349 342 336 329 339 359 2 353 350 358 6 5 357
100 137 153 145 102 101 145 283 203 153 144 116 108 98 81 175 103 71 55 29 17 336 316 286 223 239 278 282 339 13 60 48 39 65 50 33 44 37 86 107 108 143 154 169 182 187 190 191 191 190 188 190 189 187 188 191 197 200 207 217 231 250 271 286 273 236 266 252 234 180 156 135 114 89 75 65 51 35 19 5 349 342 340 330 306 302 308 310 316 329 334 331 326 329 348 357 354
84 107 133 133 132 90 136 264 122 174 133 114 113 121 205 91 69 51 21 6 7 10 24 278 223 318 290 356 34 40 52 49 45 54 44 36 48 56 90 104 113 143 154 164 176 186 192 191 191 195 195 196 196 191 190 193 198 202 207 218 231 250 273 278 169 219 292 258 224 200 175 149 128 82 61 41 28 19 6 352 338 328 322 276 256 271 287 297 305 315 322 317 311 305 318 334 337
74 86 139 149 167 84 33 121 124 214 103 104 114 118 181 22 44 30 12 21 67 59 41 301 45 46 356 32 12 7 33 38 36 41 53 40 49 72 90 101 116 141 153 163 174 185 194 192 192 197 200 202 203 199 195 196 199 204 209 219 235 244 250 214 161 183 267 269 237 206 196 175 162 69 44 20 11 5 357 345 335 323 235 235 256 270 283 294 302 314 315 301 298 296 303 315 321
71 76 113 129 111 90 196 147 143 108 65 2 96 107 100 40 349 353 351 94 87 47 47 18 15 44 107 64 37 30 19 15 18 34 57 49 60 79 86 97 112 132 150 165 174 185 194 194 196 199 202 204 206 206 203 202 203 209 214 223 234 232 227 205 178 188 217 264 252 218 217 220 251 23 21 9 3 357 353 340 335 314 220 237 260 276 289 299 313 319 291 292 294 294 300 305 310
76 83 102 119 86 37 220 126 121 106 76 336 52 87 68 46 331 328 310 148 124 45 36 23 360 17 111 48 59 51 27 27 19 40 72 68 77 79 81 89 104 126 150 165 173 185 194 196 200 202 203 205 206 208 205 206 207 210 216 222 224 218 219 214 187 189 213 250 268 243 240 309 342 5 7 360 357 358 2 356 356 24 233 253 265 280 295 306 337 360 329 308 297 292 298 303 308
71 105 116 150 82 8 153 115 107 78 101 273 322 340 5 358 305 311 8 99 84 46 10 16 360 11 74 29 66 57 42 48 35 79 105 100 93 82 81 82 95 117 145 163 175 183 191 196 204 206 206 207 206 206 202 203 205 207 211 213 212 212 215 214 191 192 209 233 279 267 243 351 354 350 352 350 353 4 15 20 33 45 290 275 261 277 303 320 350 2 354 329 306 301 304 303 311
66 106 121 174 143 111 132 129 110 56 118 191 274 261 315 319 265 279 128 88 59 36 2 15 9 21 67 63 86 62 49 57 54 93 121 120 104 88 85 84 87 103 134 157 173 182 189 194 202 210 210 211 209 203 200 200 203 204 207 209 210 215 216 210 199 203 210 223 261 252 248 338 350 327 335 342 349 4 16 20 28 29 341 310 289 314 327 335 349 354 354 342 320 320 324 312 318
57 80 104 145 181 157 156 158 121 120 125 335 279 274 279 266 247 276 260 104 59 19 18 33 59 43 62 95 86 66 52 57 62 86 116 127 116 97 91 91 89 95 117 146 169 181 189 192 198 206 209 213 213 205 200 200 202 204 204 206 212 220 219 209 205 215 224 232 238 220 246 301 317 305 317 329 333 351 5 8 6 13 346 317 321 331 332 339 350 353 359 1 344 336 343 112 108
60 59 97 174 190 186 174 165 136 124 104 299 253 289 261 229 240 241 255 106 39 2 30 23 87 52 78 103 83 78 52 49 71 84 107 122 127 117 104 102 97 95 103 128 158 174 185 193 199 203 206 210 215 212 203 200 202 205 204 201 209 219 219 215 216 219 228 240 228 203 225 250 268 285 296 303 311 333 347 355 352 345 326 309 318 326 329 339 347 349 357 6 3 7 82 139 126
161 64 216 208 191 195 172 156 137 113 143 169 143 93 156 192 224 200 245 100 48 114 58 11 57 32 128 132 126 111 38 15 64 75 122 150 172 185 161 133 114 106 103 112 141 164 177 189 198 204 208 208 213 217 210 205 204 206 205 202 209 214 217 221 226 226 227 234 225 205 211 224 235 250 266 282 290 304 314 324 325 323 318 307 310 318 326 336 338 337 344 360 8 22 109 140 135
96 121 225 193 45 214 131 152 134 122 155 150 122 78 94 189 240 66 346 60 70 147 81 39 54 355 323 148 177 179 343 354 22 4 212 198 196 206 204 191 163 138 126 128 146 158 169 180 191 203 209 211 212 216 216 211 207 208 206 204 210 214 217 222 230 234 231 234 227 215 211 217 228 235 246 262 272 277 279 287 296 302 304 299 302 312 321 328 329 330 331 334 345 359 134 149 146
104 123 250 151 55 169 158 155 154 178 157 121 106 335 294 192 148 115 330 334 93 63 34 70 67 320 298 153 177 208 309 341 342 304 270 224 202 207 209 211 203 184 172 168 179 173 174 178 182 195 204 213 214 217 219 217 212 210 208 207 210 214 218 224 231 235 233 232 227 223 218 217 225 232 238 243 254 260 264 271 283 292 294 292 299 311 319 321 323 326 327 323 316 303 160 164 164
111 113 68 127 140 173 197 201 163 197 151 114 131 336 217 139 112 126 336 341 47 355 342 29 349 323 340 335 228 287 300 310 311 284 268 236 206 213 209 214 215 212 214 209 217 204 199 196 189 193 196 208 214 218 220 220 219 213 210 210 212 216 220 226 229 232 233 231 228 227 222 221 224 229 232 235 245 253 261 267 274 281 286 290 295 308 314 316 323 330 328 323 317 306 256 186 182
98 111 108 140 160 193 190 164 178 192 139 113 84 56 165 139 105 138 273 309 300 317 339 339 334 345 4 301 295 302 299 297 287 266 259 246 223 221 211 215 216 218 224 224 228 221 219 215 209 205 199 204 210 217 219 220 222 217 214 214 215 218 223 227 228 229 230 231 231 229 228 229 234 237 234 237 244 249 258 261 264 272 278 283 290 303 306 306 321 335 332 327 321 315 304 215 197
90 118 197 150 172 200 180 172 177 148 125 128 90 56 221 153 87 330 307 291 279 310 355 324 311 121 299 298 305 313 312 302 278 256 248 242 236 230 220 217 216 219 223 226 229 224 222 222 221 217 210 209 207 213 218 219 221 219 217 219 221 222 227 231 231 231 231 236 239 235 233 234 239 243 239 239 244 247 256 261 266 275 278 280 289 299 298 297 317 338 342 337 324 314 303 245 214
88 186 220 159 165 164 171 165 154 108 115 132 121 66 292 310 328 338 318 232 239 308 356 138 134 82 332 322 329 340 343 323 287 263 249 237 234 231 227 222 221 222 223 226 228 227 226 225 226 225 219 217 211 209 213 217 220 216 213 221 226 228 233 236 235 236 235 238 248 247 239 239 239 240 240 238 241 244 251 261 270 276 278 280 287 296 296 299 314 334 343 341 332 319 304 268 228
66 164 255 139 134 82 137 152 146 143 103 121 145 123 309 310 312 326 304 222 209 313 129 145 146 51 331 323 340 352 354 341 302 264 249 238 232 230 231 228 226 226 226 229 228 228 227 225 227 229 228 225 219 211 207 210 215 211 205 211 219 224 230 237 238 238 236 233 240 246 239 238 237 237 242 238 236 239 245 256 266 275 276 274 285 297 299 306 318 324 331 336 335 327 311 290 250
84 229 294 115 133 83 189 187 185 211 116 121 175 164 276 291 279 278 306 292 240 153 128 153 161 300 307 293 331 342 347 343 321 265 243 237 232 231 233 232 233 233 232 234 234 234 231 228 227 227 228 229 229 219 209 204 206 209 206 206 210 217 225 232 238 243 243 236 233 237 235 233 233 237 245 245 240 237 245 256 263 274 266 260 283 293 296 311 320 318 324 333 336 332 318 303 283
130 289 42 105 158 194 154 186 199 211 232 234 212 245 267 244 247 261 289 293 233 131 141 192 246 292 277 235 290 325 332 333 326 306 260 237 231 233 235 234 235 236 237 239 243 244 242 238 233 229 225 225 230 226 217 207 196 200 208 211 207 208 216 225 234 244 247 247 245 240 237 235 233 237 243 248 247 238 244 256 262 267 259 256 275 283 289 310 315 313 322 329 332 331 321 309 299
136 87 64 113 172 181 119 162 175 189 231 216 226 260 256 210 235 250 252 277 290 129 173 223 274 283 242 219 264 307 315 318 316 313 294 264 252 242 240 236 233 236 241 246 251 255 255 251 243 235 227 221 223 226 221 211 193 190 202 214 210 203 214 225 232 235 234 245 253 246 245 244 237 240 244 247 249 243 241 249 257 261 264 266 270 274 284 302 304 301 314 323 324 326 321 314 306
264 120 137 174 199 224 137 185 203 208 216 210 238 256 234 222 248 250 245 255 263 247 231 247 266 251 210 214 250 285 298 306 311 312 298 284 277 266 260 255 250 251 253 258 260 264 266 264 256 238 225 218 215 218 219 210 187 175 196 210 207 201 216 230 238 236 231 238 245 244 249 251 244 239 241 247 248 247 239 239 251 255 263 268 267 275 286 296 294 289 312 325 322 324 319 315 314
289 149 157 204 217 237 238 220 238 236 226 231 245 250 234 226 250 250 236 240 251 255 251 248 236 212 204 218 245 267 285 309 321 323 314 300 286 275 272 270 274 279 280 282 277 272 267 263 261 237 217 211 209 208 209 209 183 170 186 191 189 196 207 220 233 238 234 240 245 245 250 248 245 238 234 244 244 243 240 237 245 251 260 264 264 272 283 290 286 283 321 328 323 327 323 320 324
232 213 148 203 228 246 266 262 262 254 248 249 241 241 242 229 238 244 227 233 239 239 228 208 198 194 203 220 233 248 283 320 329 328 326 323 316 315 313 311 311 309 307 304 302 290 274 259 256 231 206 202 203 200 198 201 181 168 171 163 178 198 198 216 228 231 228 237 250 252 253 250 250 245 234 238 244 240 234 233 241 253 263 262 257 265 273 276 271 275 303 319 320 323 322 323 325
166 210 174 243 253 269 280 273 270 262 251 240 227 238 244 225 228 233 226 230 221 205 199 184 184 194 201 206 205 205 240 314 320 318 319 326 329 336 331 321 313 307 314 330 353 332 282 247 241 215 198 196 197 194 191 188 169 159 170 171 188 192 187 212 220 222 223 226 239 244 250 255 263 262 241 237 246 239 228 235 247 257 263 254 253 268 271 267 266 273 282 294 309 313 314 321 323
84 312 288 271 277 284 280 270 267 264 252 228 225 247 233 196 220 225 208 214 199 187 188 185 192 200 199 181 156 134 99 16 318 308 310 321 328 325 302 277 256 240 137 114 87 99 107 116 158 177 188 191 193 192 188 183 167 168 192 190 194 193 192 211 216 217 219 217 219 228 242 251 259 275 273 251 241 243 240 241 251 256 249 241 249 269 270 265 267 275 274 274 293 303 304 314 317
2 322 295 270 280 283 269 267 265 254 249 215 214 243 111 174 218 116 168 182 175 178 185 189 198 202 221 336 354 4 17 11 13 355 305 290 263 252 238 200 169 157 145 155 141 126 116 123 145 157 178 186 191 193 190 190 182 181 197 199 198 203 204 210 214 217 218 219 229 239 242 246 249 254 265 253 236 239 234 231 244 247 241 245 258 268 261 253 248 264 271 264 276 282 282 301 309
321 338 308 288 282 275 251 337 245 197 207 158 175 219 189 187 189 114 156 171 165 177 192 193 201 227 286 303 312 331 345 356 9 356 292 246 222 212 202 166 136 136 140 146 142 145 143 148 158 157 172 184 188 194 190 193 196 191 196 199 197 202 204 206 212 220 223 225 236 246 243 242 243 243 247 252 236 225 214 216 238 240 235 244 259 263 249 238 237 253 264 261 271 275 273 290 297
285 111 315 304 288 268 86 37 321 219 188 153 171 252 206 169 156 137 169 178 171 181 205 211 222 250 263 271 289 306 325 342 350 334 314 290 225 106 92 116 99 91 105 111 124 146 157 157 165 164 168 180 184 189 190 192 197 193 193 198 198 200 203 205 207 211 218 221 224 231 236 238 239 235 234 242 233 217 221 235 239 235 231 232 245 256 248 246 249 252 259 259 268 278 279 284 285
307 253 227 294 287 250 97 28 325 272 157 160 200 269 240 143 153 174 189 181 179 194 215 229 238 242 247 249 263 280 300 316 322 320 312 304 102 91 65 81 88 87 92 97 119 137 155 156 160 164 166 177 179 180 189 190 189 193 196 199 202 203 201 199 197 201 213 222 227 233 244 250 247 236 224 231 237 236 247 250 240 229 222 231 251 257 255 261 264 261 265 264 266 271 273 277 279
353 272 238 183 250 262 98 52 356 314 102 159 218 261 279 144 156 175 184 183 189 210 222 231 235 232 234 236 248 265 280 294 301 297 268 225 124 100 91 88 89 97 105 111 120 125 138 149 150 156 159 166 169 172 183 184 184 194 196 194 197 194 187 188 195 204 213 222 237 243 246 254 259 249 232 242 254 255 256 260 261 248 231 241 251 248 255 261 260 261 266 270 270 267 266 269 269
161 250 264 240 233 279 5 89 43 339 336 183 230 263 314 134 162 179 185 194 205 215 221 225 225 223 222 227 239 252 265 276 268 250 226 188 149 127 119 111 102 103 107 110 118 124 126 133 141 147 149 152 158 163 173 178 180 186 184 179 176 171 171 173 171 174 182 189 209 215 210 214 164 41 339 274 275 280 280 284 293 280 256 251 251 255 265 263 265 271 275 277 275 271 272 271 270
190 198 259 260 237 258 275 136 85 349 273 229 233 254 263 139 161 186 194 204 210 208 214 218 215 215 216 221 229 238 245 246 238 223 199 173 148 139 137 124 113 109 110 113 119 125 126 131 143 147 143 142 147 154 163 170 172 174 171 160 155 160 164 156 146 145 145 136 128 125 124 120 107 82 62 57 30 22 21 17 12 339 310 286 269 274 284 280 279 281 282 283 279 278 280 281 281
190 192 242 269 238 234 246 242 67 26 265 259 244 251 257 199 171 192 207 208 207 206 210 212 209 210 212 217 221 223 225 222 218 207 183 162 145 140 140 129 120 116 116 119 122 124 126 129 135 138 133 130 132 140 149 152 152 156 158 153 155 157 149 146 154 168 168 160 160 148 131 127 127 111 95 88 31 354 347 337 326 307 290 284 279 275 276 274 268 268 274 284 288 288 287 288 286
84 185 248 280 267 255 235 204 16 15 276 263 255 262 267 238 193 193 204 206 202 205 208 207 206 206 208 212 216 211 209 212 206 196 174 154 146 140 136 132 126 124 123 123 123 124 125 124 124 123 122 122 124 129 132 134 134 138 147 153 154 150 149 156 170 193 198 183 186 186 186 192 153 125 87 48 345 317 302 302 308 307 293 286 288 282 278 278 279 283 289 296 298 296 295 294 290
106 171 251 264 268 275 201 122 43 36 270 263 257 269 272 267 240 192 178 196 198 202 206 204 199 198 202 206 211 207 204 208 200 188 170 154 148 139 136 139 134 133 132 126 122 124 123 123 124 120 115 112 113 118 122 130 137 141 152 166 165 157 158 160 145 135 125 117 113 102 80 63 57 45 36 32 28 29 30 29 20 12 7 3 5 359 351 345 337 332 327 326 324 317 314 311 308
204 241 253 256 253 266 229 121 71 107 248 261 260 270 266 267 262 181 159 197 205 204 206 200 193 190 197 202 207 212 208 205 194 181 168 157 149 142 139 142 144 144 141 135 130 129 125 123 124 119 112 109 109 117 124 132 145 155 162 162 155 144 134 123 111 98 91 88 85 83 80 73 67 60 57 53 49 48 45 41 37 34 30 27 25 19 13 7 0 357 353 348 344 339 335 329 327
223 228 249 256 251 274 264 128 110 165 230 257 280 273 266 267 264 193 165 202 205 205 208 198 189 185 194 199 202 210 209 201 188 175 167 160 154 151 147 147 151 152 147 144 139 133 130 128 126 122 119 117 113 116 120 121 126 132 131 125 121 119 113 105 98 91 87 85 83 81 78 74 69 65 63 59 55 52 48 44 40 38 34 30 27 23 18 14 11 10 9 7 0 354 348 341 340
223 214 232 244 227 251 253 145 103 180 233 292 311 283 273 269 260 216 154 178 193 206 211 206 197 191 196 200 201 204 203 198 183 171 166 162 160 156 153 154 157 156 153 149 144 139 137 135 132 130 128 123 115 113 112 109 109 110 110 109 108 106 102 97 92 89 87 84 81 77 72 67 62 60 58 53 48 45 40 38 35 33 29 27 24 19 14 12 11 11 10 12 9 5 1 356 355
217 211 225 239 230 227 242 324 70 216 207 241 284 283 271 257 251 233 131 152 190 194 200 203 202 201 202 201 201 201 198 193 177 168 165 161 159 156 156 159 157 155 154 150 146 143 140 136 131 127 123 118 113 109 107 104 102 103 104 104 102 98 96 95 93 90 87 82 77 73 67 61 55 52 49 44 38 33 29 26 24 21 17 14 11 7 5 4 5 5 5 6 6 9 11 7 4
219 212 220 235 245 238 231 147 318 263 238 191 238 273 267 220 236 233 146 175 195 180 193 198 195 201 202 199 200 197 190 184 172 165 162 158 156 156 157 158 154 152 149 145 141 137 133 129 125 121 117 113 109 106 104 102 101 101 100 100 99 98 98 97 93 89 84 79 74 69 64 60 53 46 43 38 31 25 20 16 12 9 4 1 2 2 1 1 1 0 1 3 3 7 10 9 7
243 210 209 225 242 242 218 193 213 260 270 97 219 265 268 241 229 197 152 207 204 186 204 202 193 200 201 201 201 192 181 175 168 162 158 156 156 156 155 153 150 147 143 138 134 131 127 124 121 118 115 111 108 106 104 103 103 101 99 100 101 101 100 96 92 88 85 81 77 73 68 62 54 46 42 35 27 21 15 11 7 3 1 359 360 359 357 359 1 0 2 2 3 5 5 5 8
239 88 188 208 218 221 214 205 216 253 327 96 201 243 277 266 247 139 144 234 225 206 209 205 199 202 203 205 202 190 178 169 163 159 156 156 155 153 150 148 146 143 139 135 132 129 126 124 121 119 116 113 110 107 105 103 101 101 102 102 103 100 97 96 94 90 88 87 85 82 76 67 59 48 43 35 28 25 18 14 12 9 7 6 5 4 5 8 8 7 7 6 6 7 6 7 8
289 73 120 166 192 211 202 207 225 253 316 242 195 174 266 263 221 119 150 245 245 219 199 194 197 199 200 203 199 186 175 167 161 158 155 154 153 151 148 146 144 140 137 134 132 130 128 127 125 123 120 117 114 112 108 105 103 105 105 101 99 100 98 97 97 94 92 90 88 86 79 67 59 48 43 38 31 29 24 21 21 17 15 15 15 16 17 16 12 11 10 9 10 9 9 10 8
130 120 96 93 81 83 139 212 217 188 254 244 193 170 236 273 215 178 182 242 245 214 181 187 191 193 196 198 194 184 174 167 161 158 156 154 152 150 148 146 143 140 138 136 134 134 133 131 130 129 126 123 119 116 115 116 119 118 112 102 97 100 102 100 100 99 96 94 88 82 77 66 57 48 43 37 32 29 25 22 19 16 15 16 16 16 15 13 10 9 8 8 7 6 5 5 5
137 138 107 101 89 86 113 187 167 232 250 234 193 181 211 264 226 196 204 227 203 152 161 180 181 186 193 194 190 182 174 167 163 160 157 154 152 151 149 146 143 141 139 139 138 137 137 136 135 134 131 127 124 125 128 132 133 127 116 107 100 99 103 102 100 101 99 97 89 76 70 62 54 48 41 34 28 25 22 18 14 13 13 11 10 9 8 7 6 5 5 4 1 359 360 358 358
152 158 141 137 139 141 180 161 166 244 249 200 172 185 207 235 223 197 201 99 131 153 168 178 178 182 189 190 187 181 174 168 164 161 158 155 154 152 151 148 145 144 142 142 141 141 141 140 142 141 136 133 134 135 138 137 136 132 121 111 103 101 105 102 96 102 104 97 83 74 69 60 53 46 38 31 25 23 19 15 12 10 7 5 4 3 3 2 1 360 358 355 354 353 352 350 349
198 170 163 189 211 186 219 202 192 242 238 88 53 159 211 240 242 258 278 106 140 122 94 184 182 179 182 185 185 180 175 171 167 164 161 158 157 155 153 151 149 149 147 147 146 146 147 146 149 149 143 141 143 142 142 139 138 136 126 114 107 106 111 107 101 105 109 101 86 80 75 66 55 42 33 23 17 14 10 6 3 0 358 357 357 356 355 353 351 350 348 346 345 344 342 341 341
193 181 177 197 197 200 227 208 227 260 227 76 91 170 226 253 246 261 281 81 94 79 59 205 179 176 180 183 183 180 176 174 170 167 164 161 160 158 156 156 156 155 153 153 153 153 154 153 155 156 150 148 148 146 146 145 143 139 133 125 116 118 123 120 117 118 114 106 99 90 77 64 44 26 16 7 3 360 356 353 351 351 350 349 349 347 346 344 342 341 338 337 335 334 334 333 332
194 190 192 208 194 207 227 210 237 267 108 97 132 183 213 208 155 285 325 53 84 94 136 176 168 177 182 182 182 181 179 178 174 170 166 164 163 162 162 162 162 161 160 160 160 160 161 160 161 164 159 155 154 152 151 151 149 144 143 140 134 137 144 140 142 146 140 134 122 106 66 40 16 4 360 354 352 349 346 344 343 342 341 340 340 338 337 336 334 333 331 330 330 328 327 326 325
195 108 211 232 212 182 230 265 358 30 343 191 183 229 241 212 124 120 120 176 164 140 133 156 163 176 181 183 184 184 183 182 178 173 169 167 167 167 168 169 167 167 166 166 166 167 168 167 168 172 169 161 160 158 156 156 156 154 154 156 155 160 168 177 186 184 179 183 184 209 279 335 343 347 347 343 341 337 334 333 331 330 329 328 328 327 327 327 326 326 325 324 324 323 323 322 322
148 172 199 219 322 90 136 243 78 67 271 230 177 226 248 227 229 154 148 184 174 170 166 161 165 173 180 185 188 187 186 184 180 176 172 171 172 172 173 173 173 173 173 172 172 172 174 175 176 177 175 169 166 164 162 162 165 168 168 170 175 181 191 199 203 204 204 205 213 234 263 303 319 325 325 322 320 319 318 318 318 318 319 318 319 319 319 319 319 319 319 319 319 319 318 318 317
135 190 187 137 14 350 223 247 203 195 254 249 185 218 211 190 210 149 158 191 194 197 181 160 170 178 186 191 190 189 188 186 183 178 175 175 177 177 178 178 178 178 179 178 178 178 179 182 184 184 182 177 171 169 170 172 176 179 181 184 190 196 202 205 206 208 211 216 230 252 270 285 295 300 304 305 307 309 311 313 315 316 317 317 318 318 317 317 316 314 314 313 312 312 311 311 311
153 193 162 135 226 206 180 226 236 210 240 253 197 216 218 204 196 166 182 197 197 193 176 169 185 189 193 195 193 191 190 189 186 181 180 181 182 182 182 183 183 184 185 184 183 184 185 187 189 189 188 184 178 176 178 182 185 189 193 195 199 202 203 205 208 214 221 229 242 255 265 275 283 291 298 302 308 312 315 318 320 321 321 321 320 319 317 315 313 311 310 308 308 308 308 309 309
12 161 172 185 265 219 179 199 230 218 234 250 209 203 211 208 193 179 188 197 189 179 178 192 196 194 196 197 195 193 192 191 188 185 185 186 186 185 185 187 188 189 189 189 189 190 191 192 193 193 192 188 186 185 187 191 194 196 200 202 202 203 203 208 216 222 229 234 243 252 260 271 282 291 300 307 313 318 320 323 324 323 323 321 319 317 315 313 311 310 309 309 309 309 309 311 311
170 182 183 188 195 240 260 230 208 232 240 239 245 252 212 180 184 184 188 195 183 176 184 193 194 198 201 200 197 194 193 192 190 189 190 190 189 188 189 191 192 193 194 194 195 196 197 197 197 196 195 193 193 193 194 198 201 202 204 204 204 205 207 215 221 222 228 235 242 252 259 270 285 297 306 313 317 321 323 323 323 322 320 319 317 316 314 313 312 312 312 312 313 314 314 315 315
184 190 187 188 182 164 213 222 186 203 246 233 252 271 230 149 147 190 183 196 179 182 191 188 193 201 204 202 199 197 195 195 193 193 193 192 191 191 192 195 196 197 198 199 200 202 202 201 201 199 199 198 199 201 201 203 206 205 205 206 207 210 212 216 219 221 228 236 242 251 262 278 294 305 313 318 321 323 324 323 322 321 319 318 316 316 314 314 314 315 316 316 317 318 319 319 320